Prescott, AZ

7:53 PM MST on November 11, 2019 (GMT -0700)
Love

Weather History for KPRC - September, 2019

Change the Weather History Date:

Sunday, September 29, 2019

  Actual Average Record
Temperature  
Mean Temperature 64 °F 63 °F  
Max Temperature 70 °F 78 °F 93 °F (2010)
Min Temperature 59 °F 48 °F 38 °F (1974)
Degree Days  
Heating Degree Days 0    
Month to date heating degree days 22  
Since 1 July heating degree days 22  
Cooling Degree Days 0    
Month to date cooling degree days 155  
Year to date cooling degree days 1130  
Growing Degree Days 14 (Base 50)    
Moisture  
Dew Point 44 °F    
Average Humidity 53    
Maximum Humidity 78    
Minimum Humidity 27    
Precipitation  
Precipitation 0.00 in 0.04 in 1.49 in (1971)
Month to date precipitation 2.18 1.47  
Year to date precipitation 10.29 11.13  
Sea Level Pressure  
Sea Level Pressure 29.70 in    
Wind  
Wind Speed 12 mph ()    
Max Wind Speed 25 mph    
Max Gust Speed 34 mph    
Visibility 10.0 miles    
Events      
T = Trace of Precipitation, MM = Missing Value Source: Averaged Metar Reports

Daily Weather History Graph

Daily Weather History Graph

Search for Another Location

Airport or City:

Astronomy

Sep. 29, 2019 Rise Set
Actual Time 6:22 AM MST 6:16 PM MST
Civil Twilight 5:57 AM MST 6:41 PM MST
Nautical Twilight 5:28 AM MST 7:11 PM MST
Astronomical Twilight 4:58 AM MST 7:40 PM MST
Moon 7:17 AM MST (9/29) 7:21 PM MST (9/29)
Length of Visible Light 12h 44m
Length of Day
11h 53m
New Moon, 2% of the Moon is Illuminated
Sep 29
New Moon
Oct 5
First Quarter
Oct 13
Full
Oct 21
Last Quarter
Oct 27
New

Hourly Weather History & Observations

Time (MST) Temp. Dew Point Humidity Pressure Visibility Wind Dir Wind Speed Gust Speed Precip Events Conditions
12:53 AM 62.1 °F 53.1 °F 72% 29.65 in 10.0 mi South 12.7 mph 20.7 mph N/A   Clear
1:53 AM 62.1 °F 52.0 °F 70% 29.65 in 10.0 mi South 11.5 mph 21.9 mph N/A   Clear
2:53 AM 60.1 °F 51.1 °F 72% 29.64 in 10.0 mi South 12.7 mph 23.0 mph N/A   Clear
3:53 AM 59.0 °F 50.0 °F 72% 29.64 in 10.0 mi South 16.1 mph 23.0 mph N/A   Clear
4:48 AM 59.0 °F 51.8 °F 77% 29.86 in 10.0 mi South 13.8 mph - N/A   Mostly Cloudy
4:53 AM 59.0 °F 51.1 °F 75% 29.66 in 10.0 mi South 13.8 mph 24.2 mph N/A   Mostly Cloudy
5:53 AM 59.0 °F 52.0 °F 78% 29.69 in 10.0 mi South 8.1 mph - N/A   Mostly Cloudy
6:53 AM 59.0 °F 52.0 °F 78% 29.70 in 10.0 mi South 11.5 mph - N/A   Mostly Cloudy
7:53 AM 61.0 °F 51.1 °F 70% 29.71 in 10.0 mi South 15.0 mph 25.3 mph N/A   Mostly Cloudy
8:53 AM 62.1 °F 48.9 °F 62% 29.72 in 10.0 mi SSW 16.1 mph 23.0 mph N/A   Mostly Cloudy
9:53 AM 66.0 °F 48.0 °F 52% 29.71 in 10.0 mi South 16.1 mph 27.6 mph N/A   Mostly Cloudy
10:53 AM 66.0 °F 46.9 °F 50% 29.72 in 10.0 mi South 17.3 mph 28.8 mph N/A   Mostly Cloudy
11:53 AM 68.0 °F 46.0 °F 45% 29.71 in 10.0 mi South 19.6 mph 25.3 mph N/A   Mostly Cloudy
12:53 PM 69.1 °F 46.0 °F 44% 29.69 in 10.0 mi South 13.8 mph 28.8 mph N/A   Scattered Clouds
1:53 PM 69.1 °F 44.1 °F 40% 29.68 in 10.0 mi South 17.3 mph 31.1 mph N/A   Scattered Clouds
2:53 PM 70.0 °F 42.1 °F 36% 29.68 in 10.0 mi South 19.6 mph 26.5 mph N/A   Scattered Clouds
3:53 PM 68.0 °F 41.0 °F 37% 29.69 in 10.0 mi South 18.4 mph 28.8 mph N/A   Scattered Clouds
4:53 PM 66.9 °F 39.9 °F 37% 29.69 in 10.0 mi SSW 15.0 mph 33.4 mph N/A   Clear
5:53 PM 64.9 °F 41.0 °F 42% 29.70 in 10.0 mi South 12.7 mph 21.9 mph N/A   Clear
6:53 PM 63.0 °F 39.0 °F 41% 29.70 in 10.0 mi SSE 13.8 mph - N/A   Clear
7:53 PM 62.1 °F 36.0 °F 38% 29.70 in 10.0 mi South 12.7 mph - N/A   Clear
8:53 PM 61.0 °F 35.1 °F 38% 29.71 in 10.0 mi Variable 6.9 mph - N/A   Clear
9:53 PM 61.0 °F 33.1 °F 35% 29.71 in 10.0 mi South 8.1 mph - N/A   Scattered Clouds
10:53 PM 61.0 °F 28.9 °F 30% 29.71 in 10.0 mi South 10.4 mph - N/A   Partly Cloudy
11:53 PM 60.1 °F 26.1 °F 27% 29.71 in 10.0 mi South 11.5 mph 20.7 mph N/A   Clear